Yiewsley, United Kingdom

12:41 PM GMT on January 19, 2018 (GMT +0000)
Yiewsley

Weather History for 03772 - October, 2011

Change the Weather History Date:

Wednesday, October 19, 2011

  Actual Average Record
Temperature  
Mean Temperature 48 °F -  
Max Temperature 56 °F 53 °F - ()
Min Temperature 39 °F 42 °F - ()
Degree Days  
Heating Degree Days 18    
Moisture  
Dew Point 38 °F    
Average Humidity 76    
Maximum Humidity 93    
Minimum Humidity 41    
Precipitation  
Precipitation 0.01 in - - ()
Sea Level Pressure  
Sea Level Pressure 30.07 in    
Wind  
Wind Speed 9 mph ()    
Max Wind Speed 15 mph    
Max Gust Speed -    
Visibility 9.2 miles    
Events Rain    
T = Trace of Precipitation, MM = Missing Value Source: Averaged Metar Reports

Daily Weather History Graph

Daily Weather History Graph

Search for Another Location

Airport or City:

Trip Planner

Search our weather history database for the weather conditions in past years. The results will help you decide how hot, cold, wet, or windy it might be!

Date:

Astronomy

Oct. 19, 2011 Rise Set
Actual Time 7:31 AM BST 6:00 PM BST
Civil Twilight 6:57 AM BST 6:34 PM BST
Nautical Twilight 6:19 AM BST 7:13 PM BST
Astronomical Twilight 5:40 AM BST 7:52 PM BST
Moon 11:11 PM BST 2:14 PM BST
Length of Visible Light 11h 36m
Length of Day
10h 29m
Waning Gibbous, 57% of the Moon is Illuminated
Oct 19
Waning Gibbous
Oct 20
Last Quarter
Oct 26
New
Nov 2
First Quarter
Nov 10
Full

Hourly Weather History & Observations

Time (BST) Temp. Windchill Dew Point Humidity Pressure Visibility Wind Dir Wind Speed Gust Speed Precip Events Conditions
12:20 AM 46.4 °F 40.4 °F 39.2 °F 76% 29.92 in - West 13.8 mph - N/A   Clear
12:50 AM 45 °F - 39 °F 74% 29.92 in 19 mi West 11.5 mph - -  
12:50 AM 44.6 °F 38.4 °F 39.2 °F 81% 29.92 in - West 12.7 mph - N/A   Clear
1:20 AM 44.6 °F 38.8 °F 39.2 °F 81% 29.92 in - West 11.5 mph - N/A   Clear
1:50 AM 44.6 °F 39.7 °F 39.2 °F 81% 29.92 in - West 9.2 mph - N/A   Clear
2:20 AM 44.6 °F 39.7 °F 39.2 °F 81% 29.92 in - West 9.2 mph - N/A   Clear
2:50 AM 42.8 °F 37.5 °F 39.2 °F 87% 29.92 in - West 9.2 mph - N/A   Clear
3:20 AM 42.8 °F 37.0 °F 39.2 °F 87% 29.92 in - West 10.4 mph - N/A   Clear
3:50 AM 41 °F - 38 °F 85% 29.93 in 17 mi West 9.2 mph - -   Scattered Clouds
3:50 AM 41.0 °F 35.2 °F 37.4 °F 87% 29.92 in - West 9.2 mph - N/A   Clear
4:20 AM 41.0 °F 35.2 °F 37.4 °F 87% 29.92 in - West 9.2 mph - N/A   Clear
4:50 AM 39.2 °F 34.2 °F 37.4 °F 93% 29.95 in - West 6.9 mph - N/A   Clear
5:20 AM 41.0 °F 35.2 °F 37.4 °F 87% 29.95 in - West 9.2 mph - N/A   Clear
5:50 AM 41.0 °F 35.2 °F 37.4 °F 87% 29.95 in - West 9.2 mph - N/A   Clear
6:20 AM 41.0 °F 34.7 °F 37.4 °F 87% 29.98 in - West 10.4 mph - N/A   Clear
6:50 AM 41 °F - 38 °F 85% 29.99 in 18 mi West 6.9 mph - -  
6:50 AM 41.0 °F 35.8 °F 37.4 °F 87% 29.98 in - West 8.1 mph - N/A   Clear
7:20 AM 41.0 °F 35.2 °F 37.4 °F 87% 29.98 in - West 9.2 mph - N/A   Clear
7:50 AM 41.0 °F 35.2 °F 37.4 °F 87% 30.01 in - West 9.2 mph - N/A   Clear
8:20 AM 42.8 °F 37.5 °F 37.4 °F 81% 30.01 in - West 9.2 mph - N/A   Clear
8:50 AM 42.8 °F 37.0 °F 39.2 °F 87% 30.04 in - West 10.4 mph - N/A   Clear
9:20 AM 44.6 °F 40.2 °F 39.2 °F 81% 30.04 in - West 8.1 mph - N/A   Clear
9:50 AM 46 °F - 38 °F 66% 30.05 in 19 mi West 11.5 mph - -  
9:50 AM 46.4 °F 41.9 °F 39.2 °F 76% 30.04 in - WNW 9.2 mph - N/A   Clear
10:20 AM 48.2 °F - 39.2 °F 71% 30.06 in - WNW 9.2 mph - N/A   Clear
10:50 AM 50.0 °F - 39.2 °F 66% 30.06 in - WNW 11.5 mph - N/A   Clear
11:20 AM 51.8 °F - 39.2 °F 62% 30.06 in 6.2 mi WNW 8.1 mph - N/A   Partly Cloudy
11:50 AM 53.6 °F - 39.2 °F 58% 30.06 in 6.2 mi NW 10.4 mph - N/A   Partly Cloudy
12:20 PM 53.6 °F - 37.4 °F 54% 30.06 in 6.2 mi NW 12.7 mph - N/A   Partly Cloudy
12:50 PM 53.6 °F - 37.4 °F 54% 30.09 in 6.2 mi NW 10.4 mph - N/A   Partly Cloudy
1:20 PM 53.6 °F - 35.6 °F 51% 30.09 in 6.2 mi WNW 11.5 mph - N/A   Scattered Clouds
1:50 PM 55.4 °F - 35.6 °F 47% 30.09 in 6.2 mi WNW 13.8 mph - N/A   Partly Cloudy
2:20 PM 55.4 °F - 35.6 °F 47% 30.09 in 6.2 mi WNW 10.4 mph - N/A   Partly Cloudy
2:50 PM 55.4 °F - 32.0 °F 41% 30.09 in 6.2 mi WNW 10.4 mph - N/A   Partly Cloudy
3:20 PM 53.6 °F - 32.0 °F 44% 30.09 in 6.2 mi WNW 10.4 mph - N/A   Unknown
3:50 PM 50 °F - 39 °F 56% 30.12 in 25 mi West 12.7 mph - - Rain Rain
3:50 PM 50.0 °F - 37.4 °F 62% 30.12 in 6.2 mi West 15.0 mph - N/A   Partly Cloudy
4:20 PM 50.0 °F - 41.0 °F 71% 30.12 in 6.2 mi NW 13.8 mph - N/A Rain Light Rain Showers
4:50 PM 48.2 °F - 41.0 °F 76% 30.12 in 6.2 mi WNW 8.1 mph - N/A   Scattered Clouds
5:20 PM 46.4 °F 42.4 °F 39.2 °F 76% 30.15 in 6.2 mi West 8.1 mph - N/A   Partly Cloudy
5:50 PM 46.4 °F 41.9 °F 41.0 °F 81% 30.15 in 6.2 mi West 9.2 mph - N/A   Partly Cloudy
6:20 PM 44.6 °F 40.2 °F 41.0 °F 87% 30.18 in 6.2 mi West 8.1 mph - N/A   Partly Cloudy
6:50 PM 46 °F - 40 °F 72% 30.19 in 22 mi West 9.2 mph - -   Scattered Clouds
6:50 PM 44.6 °F 39.7 °F 39.2 °F 81% 30.18 in - WNW 9.2 mph - N/A   Clear
7:20 PM 44.6 °F 39.7 °F 39.2 °F 81% 30.18 in - WNW 9.2 mph - N/A   Clear
7:50 PM 42.8 °F 38.6 °F 39.2 °F 87% 30.21 in - WNW 6.9 mph - N/A   Clear
8:20 PM 42.8 °F 37.5 °F 39.2 °F 87% 30.21 in - West 9.2 mph - N/A   Clear
8:50 PM 42.8 °F 37.5 °F 39.2 °F 87% 30.21 in - West 9.2 mph - N/A   Clear
9:20 PM 42.8 °F 37.5 °F 39.2 °F 87% 30.21 in - West 9.2 mph - N/A   Clear
9:50 PM 41 °F - 37 °F 80% 30.25 in 18 mi West 4.6 mph - -  
9:50 PM 42.8 °F 38.6 °F 37.4 °F 81% 30.24 in - West 6.9 mph - N/A   Clear
10:20 PM 41.0 °F 35.8 °F 37.4 °F 87% 30.24 in - West 8.1 mph - N/A   Clear
10:50 PM 42.8 °F 37.5 °F 37.4 °F 81% 30.24 in - West 9.2 mph - N/A   Clear
11:20 PM 39.2 °F 34.2 °F 35.6 °F 87% 30.24 in - West 6.9 mph - N/A   Clear
11:50 PM 39.2 °F 35.9 °F 35.6 °F 87% 30.24 in - WNW 4.6 mph - N/A   Clear